DLH1UW EDDM-LIRF

Flight info

Callsign DLH1UW
Flight time 1h 12m
Altitude 35000
Route TURBU Y107 TOBSO DCT BAKOR DCT VESAL DCT LAMPO DCT ROKIB DCT VIC DCT KOPER DCT SUKOM DCT BAGNO DCT GAVRA DCT RITEB
Aircraft A320/M-SDE3FGHIRWY/LB1

Departure

Time 2026-05-01 08:36
Airport Munich Airport (EDDM)

Arrival

Time 2026-05-01 09:49
Airport Rome–Fiumicino Leonardo da Vinci International Airport (LIRF)
Time Latitude Longitude Altitude Speed Heading
2026-05-01 07:25 48.35507 11.80010 1486 ft 0 kts 263°
2026-05-01 07:32 48.35508 11.80010 1486 ft 0 kts 263°
2026-05-01 07:39 48.35508 11.80011 1486 ft 0 kts 263°
2026-05-01 07:56 48.35508 11.80012 1486 ft 0 kts 263°
2026-05-01 08:12 48.35508 11.80013 1485 ft 0 kts 263°
2026-05-01 08:16 48.35510 11.80045 1475 ft 4 kts 263°
2026-05-01 08:16 48.35512 11.80076 1476 ft 4 kts 240°
2026-05-01 08:17 48.35530 11.80089 1471 ft 3 kts 173°
2026-05-01 08:17 48.35548 11.80086 1473 ft 0 kts 173°
2026-05-01 08:19 48.35549 11.80086 1473 ft 0 kts 173°
2026-05-01 08:22 48.35534 11.80089 1476 ft 5 kts 173°
2026-05-01 08:22 48.35479 11.80098 1485 ft 11 kts 173°
2026-05-01 08:23 48.35399 11.80114 1475 ft 12 kts 168°
2026-05-01 08:23 48.35312 11.80138 1473 ft 14 kts 172°
2026-05-01 08:23 48.35214 11.80154 1485 ft 15 kts 175°
2026-05-01 08:23 48.35157 11.80058 1477 ft 13 kts 261°
2026-05-01 08:24 48.35148 11.79927 1485 ft 12 kts 264°
2026-05-01 08:24 48.35140 11.79814 1481 ft 10 kts 264°
2026-05-01 08:24 48.35134 11.79740 1485 ft 0 kts 263°
2026-05-01 08:24 48.35133 11.79732 1485 ft 2 kts 263°
2026-05-01 08:25 48.35133 11.79730 1485 ft 0 kts 263°
2026-05-01 08:25 48.35133 11.79728 1485 ft 1 kts 263°
2026-05-01 08:25 48.35127 11.79686 1475 ft 8 kts 258°
2026-05-01 08:25 48.35119 11.79584 1482 ft 11 kts 259°
2026-05-01 08:26 48.35061 11.79524 1482 ft 11 kts 178°
2026-05-01 08:26 48.34980 11.79536 1482 ft 12 kts 172°
2026-05-01 08:26 48.34913 11.79549 1475 ft 0 kts 173°
2026-05-01 08:27 48.34912 11.79549 1475 ft 2 kts 173°
2026-05-01 08:27 48.34882 11.79555 1479 ft 7 kts 173°
2026-05-01 08:27 48.34814 11.79551 1485 ft 12 kts 201°
2026-05-01 08:27 48.34780 11.79414 1479 ft 17 kts 264°
2026-05-01 08:28 48.34767 11.79244 1479 ft 16 kts 263°
2026-05-01 08:28 48.34753 11.79078 1475 ft 16 kts 263°
2026-05-01 08:28 48.34739 11.78910 1485 ft 16 kts 263°
2026-05-01 08:28 48.34728 11.78740 1485 ft 16 kts 264°
2026-05-01 08:29 48.34716 11.78570 1483 ft 17 kts 264°
2026-05-01 08:29 48.34701 11.78402 1485 ft 16 kts 263°
2026-05-01 08:29 48.34688 11.78233 1485 ft 17 kts 263°
2026-05-01 08:29 48.34675 11.78063 1485 ft 17 kts 263°
2026-05-01 08:30 48.34661 11.77893 1485 ft 16 kts 263°
2026-05-01 08:30 48.34648 11.77724 1476 ft 16 kts 263°
2026-05-01 08:30 48.34635 11.77556 1475 ft 16 kts 263°
2026-05-01 08:30 48.34623 11.77388 1473 ft 16 kts 264°
2026-05-01 08:31 48.34611 11.77220 1481 ft 16 kts 263°
2026-05-01 08:31 48.34597 11.77051 1485 ft 16 kts 263°
2026-05-01 08:31 48.34583 11.76884 1485 ft 16 kts 263°
2026-05-01 08:31 48.34571 11.76712 1485 ft 17 kts 264°
2026-05-01 08:32 48.34557 11.76545 1485 ft 16 kts 262°
2026-05-01 08:32 48.34545 11.76373 1485 ft 16 kts 263°
2026-05-01 08:32 48.34532 11.76208 1485 ft 16 kts 263°
2026-05-01 08:32 48.34520 11.76052 1480 ft 14 kts 263°
2026-05-01 08:33 48.34509 11.75912 1475 ft 13 kts 263°
2026-05-01 08:33 48.34499 11.75789 1485 ft 11 kts 263°
2026-05-01 08:33 48.34490 11.75675 1485 ft 14 kts 263°
2026-05-01 08:33 48.34477 11.75511 1480 ft 16 kts 263°
2026-05-01 08:34 48.34465 11.75351 1475 ft 15 kts 264°
2026-05-01 08:34 48.34431 11.75226 1481 ft 12 kts 204°
2026-05-01 08:34 48.34349 11.75228 1477 ft 12 kts 174°
2026-05-01 08:34 48.34262 11.75244 1475 ft 13 kts 173°
2026-05-01 08:35 48.34171 11.75261 1485 ft 13 kts 173°
2026-05-01 08:35 48.34089 11.75314 1479 ft 13 kts 114°
2026-05-01 08:35 48.34094 11.75467 1479 ft 22 kts 83°
2026-05-01 08:35 48.34141 11.76055 1485 ft 89 kts 83°
2026-05-01 08:36 48.34231 11.77264 1486 ft 141 kts 84°
2026-05-01 08:36 48.34389 11.78850 1864 ft 155 kts 83°
2026-05-01 08:36 48.34547 11.80451 2685 ft 155 kts 83°
2026-05-01 08:36 48.34719 11.82129 3131 ft 173 kts 83°
2026-05-01 08:37 48.34902 11.84040 3411 ft 196 kts 83°
2026-05-01 08:37 48.35121 11.86163 3894 ft 214 kts 83°
2026-05-01 08:37 48.35345 11.88459 4513 ft 229 kts 83°
2026-05-01 08:37 48.35597 11.90805 5528 ft 226 kts 84°
2026-05-01 08:38 48.35740 11.93188 6325 ft 232 kts 91°
2026-05-01 08:38 48.35301 11.95538 7084 ft 242 kts 119°
2026-05-01 08:38 48.34145 11.97347 7333 ft 246 kts 141°
2026-05-01 08:38 48.32770 11.98882 7399 ft 246 kts 140°
2026-05-01 08:39 48.31406 12.00437 7396 ft 245 kts 139°
2026-05-01 08:39 48.29967 12.01822 7399 ft 248 kts 153°
2026-05-01 08:39 48.28297 12.02574 7400 ft 263 kts 168°
2026-05-01 08:39 48.26409 12.02627 7399 ft 276 kts 179°
2026-05-01 08:40 48.22482 12.02385 8824 ft 286 kts 179°
2026-05-01 08:40 48.20483 12.02265 9665 ft 290 kts 179°
2026-05-01 08:40 48.18451 12.02146 10441 ft 294 kts 179°
2026-05-01 08:41 48.16387 12.02028 11163 ft 299 kts 179°
2026-05-01 08:41 48.14294 12.01908 11908 ft 303 kts 179°
2026-05-01 08:41 48.12194 12.01789 12663 ft 307 kts 179°
2026-05-01 08:41 48.10040 12.01663 13394 ft 312 kts 179°
2026-05-01 08:42 48.07850 12.01520 14129 ft 317 kts 182°
2026-05-01 08:42 48.05641 12.00904 14574 ft 333 kts 193°
2026-05-01 08:42 48.03329 11.99945 14722 ft 356 kts 193°
2026-05-01 08:42 48.00898 11.98911 15071 ft 368 kts 193°
2026-05-01 08:43 47.98416 11.97844 15636 ft 374 kts 193°
2026-05-01 08:43 47.95899 11.96769 16229 ft 378 kts 193°
2026-05-01 08:43 47.93352 11.95694 16838 ft 382 kts 192°
2026-05-01 08:43 47.90736 11.94940 17432 ft 383 kts 182°
2026-05-01 08:44 47.88075 11.94795 18029 ft 384 kts 176°
2026-05-01 08:44 47.85425 11.94756 18636 ft 388 kts 176°
2026-05-01 08:44 47.82685 11.94712 19152 ft 391 kts 176°
2026-05-01 08:44 47.79978 11.94659 19656 ft 395 kts 176°
2026-05-01 08:45 47.77216 11.94602 20169 ft 399 kts 176°
2026-05-01 08:45 47.74428 11.94547 20669 ft 402 kts 176°
2026-05-01 08:45 47.71616 11.94494 21159 ft 406 kts 176°
2026-05-01 08:45 47.68773 11.94448 21653 ft 409 kts 176°
2026-05-01 08:46 47.65910 11.94404 22151 ft 413 kts 176°
2026-05-01 08:46 47.63024 11.94361 22636 ft 416 kts 176°
2026-05-01 08:46 47.60114 11.94315 23117 ft 420 kts 176°
2026-05-01 08:46 47.57181 11.94268 23588 ft 423 kts 176°
2026-05-01 08:47 47.54226 11.94218 23951 ft 427 kts 176°
2026-05-01 08:47 47.51243 11.94166 24284 ft 430 kts 177°
2026-05-01 08:47 47.48272 11.94109 24633 ft 433 kts 177°
2026-05-01 08:47 47.45252 11.94051 25003 ft 436 kts 177°
2026-05-01 08:48 47.42198 11.93837 25382 ft 442 kts 184°
2026-05-01 08:48 47.39138 11.93228 25727 ft 445 kts 185°
2026-05-01 08:48 47.36058 11.92608 26115 ft 448 kts 185°
2026-05-01 08:48 47.32960 11.91986 26471 ft 451 kts 185°
2026-05-01 08:49 47.29842 11.91361 26793 ft 454 kts 185°
2026-05-01 08:49 47.26703 11.90735 27108 ft 456 kts 185°
2026-05-01 08:49 47.23549 11.90110 27462 ft 458 kts 185°
2026-05-01 08:49 47.20377 11.89485 27806 ft 461 kts 185°
2026-05-01 08:50 47.17181 11.88853 28136 ft 463 kts 185°
2026-05-01 08:50 47.13974 11.88216 28458 ft 467 kts 185°
2026-05-01 08:50 47.10746 11.87580 28802 ft 470 kts 185°
2026-05-01 08:50 47.07499 11.86937 29176 ft 472 kts 185°
2026-05-01 08:51 47.04244 11.86291 29474 ft 475 kts 185°
2026-05-01 08:51 47.02070 11.85859 29714 ft 476 kts 185°
2026-05-01 08:51 46.97710 11.84789 30120 ft 481 kts 189°
2026-05-01 08:51 46.94426 11.83779 30427 ft 484 kts 190°
2026-05-01 08:52 46.91137 11.82660 30682 ft 487 kts 191°
2026-05-01 08:52 46.88948 11.81889 30799 ft 489 kts 191°
2026-05-01 08:52 46.85624 11.80724 31060 ft 491 kts 191°
2026-05-01 08:52 46.82283 11.79587 31231 ft 493 kts 191°
2026-05-01 08:53 46.78929 11.78494 31465 ft 494 kts 190°
2026-05-01 08:53 46.75570 11.77435 31824 ft 494 kts 189°
2026-05-01 08:53 46.72199 11.76390 32111 ft 495 kts 189°
2026-05-01 08:53 46.68842 11.75353 32456 ft 494 kts 189°
2026-05-01 08:54 46.65469 11.74309 32722 ft 495 kts 189°
2026-05-01 08:54 46.62105 11.73283 33003 ft 494 kts 187°
2026-05-01 08:54 46.58699 11.72745 33322 ft 491 kts 179°
2026-05-01 08:54 46.55284 11.72552 33615 ft 491 kts 178°
2026-05-01 08:55 46.51867 11.72364 33932 ft 491 kts 178°
2026-05-01 08:55 46.48443 11.72176 34197 ft 491 kts 178°
2026-05-01 08:55 46.45025 11.71989 34482 ft 492 kts 178°
2026-05-01 08:55 46.41644 11.71799 34759 ft 491 kts 179°
2026-05-01 08:56 46.38235 11.71607 35078 ft 490 kts 179°
2026-05-01 08:56 46.34831 11.71419 35316 ft 489 kts 179°
2026-05-01 08:56 46.28075 11.71057 35386 ft 482 kts 178°
2026-05-01 08:57 46.21388 11.70706 35386 ft 481 kts 178°
2026-05-01 08:57 46.14694 11.70357 35389 ft 481 kts 178°
2026-05-01 08:58 46.08004 11.70009 35383 ft 481 kts 178°
2026-05-01 08:58 46.01341 11.69647 35396 ft 482 kts 178°
2026-05-01 08:59 45.94636 11.69280 35404 ft 482 kts 178°
2026-05-01 08:59 45.87937 11.68922 35398 ft 481 kts 178°
2026-05-01 09:00 45.81226 11.68571 35408 ft 482 kts 178°
2026-05-01 09:00 45.74520 11.68212 35401 ft 482 kts 178°
2026-05-01 09:01 45.67822 11.67852 35400 ft 482 kts 178°
2026-05-01 09:01 45.61117 11.67485 35411 ft 482 kts 179°
2026-05-01 09:02 45.54452 11.67005 35411 ft 483 kts 179°
2026-05-01 09:02 45.47739 11.66479 35406 ft 483 kts 179°
2026-05-01 09:03 45.41025 11.65974 35406 ft 483 kts 179°
2026-05-01 09:03 45.34313 11.65492 35401 ft 483 kts 179°
2026-05-01 09:04 45.27619 11.65355 35399 ft 476 kts 167°
2026-05-01 09:04 45.21070 11.66685 35393 ft 476 kts 167°
2026-05-01 09:05 45.14515 11.68050 35395 ft 476 kts 167°
2026-05-01 09:05 45.07948 11.69417 35389 ft 477 kts 167°
2026-05-01 09:06 45.01380 11.70763 35389 ft 477 kts 167°
2026-05-01 09:06 44.94853 11.72083 35390 ft 477 kts 167°
2026-05-01 09:07 44.88279 11.73425 35388 ft 477 kts 167°
2026-05-01 09:07 44.81706 11.74775 35387 ft 477 kts 167°
2026-05-01 09:08 44.75134 11.76120 35392 ft 477 kts 167°
2026-05-01 09:08 44.68550 11.77447 35393 ft 477 kts 167°
2026-05-01 09:09 44.61976 11.78769 35391 ft 478 kts 167°
2026-05-01 09:09 44.55385 11.80100 35390 ft 478 kts 167°
2026-05-01 09:10 44.48796 11.81430 35388 ft 478 kts 167°
2026-05-01 09:10 44.42248 11.82748 35387 ft 479 kts 168°
2026-05-01 09:11 44.35648 11.84069 35386 ft 479 kts 168°
2026-05-01 09:11 44.29053 11.85393 35387 ft 479 kts 168°
2026-05-01 09:12 44.22452 11.86712 35389 ft 479 kts 168°
2026-05-01 09:12 44.15846 11.88020 35392 ft 480 kts 168°
2026-05-01 09:13 44.09239 11.89328 35386 ft 479 kts 168°
2026-05-01 09:13 44.02631 11.90643 35388 ft 480 kts 168°
2026-05-01 09:14 43.96053 11.91950 35384 ft 480 kts 168°
2026-05-01 09:14 43.89428 11.93259 35373 ft 481 kts 168°
2026-05-01 09:15 43.82797 11.94561 35368 ft 482 kts 168°
2026-05-01 09:15 43.76142 11.95862 35361 ft 483 kts 168°
2026-05-01 09:16 43.69487 11.97159 35356 ft 483 kts 168°
2026-05-01 09:17 43.59487 11.99126 35351 ft 484 kts 169°
2026-05-01 09:17 43.49469 12.01086 35345 ft 485 kts 169°
2026-05-01 09:18 43.39436 12.03035 35143 ft 489 kts 169°
2026-05-01 09:19 43.32613 12.04356 33535 ft 495 kts 169°
2026-05-01 09:19 43.29212 12.05009 32955 ft 491 kts 169°
2026-05-01 09:19 43.25840 12.05654 32390 ft 487 kts 169°
2026-05-01 09:20 43.19192 12.06926 31299 ft 476 kts 169°
2026-05-01 09:20 43.12743 12.08169 29601 ft 467 kts 169°
2026-05-01 09:21 43.06371 12.09403 28571 ft 458 kts 169°
2026-05-01 09:21 43.03228 12.10008 28048 ft 454 kts 169°
2026-05-01 09:21 42.97008 12.11188 27022 ft 446 kts 170°
2026-05-01 09:22 42.90899 12.12352 26047 ft 439 kts 170°
2026-05-01 09:22 42.84901 12.13506 25070 ft 433 kts 170°
2026-05-01 09:23 42.81930 12.14076 24604 ft 429 kts 170°
2026-05-01 09:23 42.76211 12.15329 24257 ft 406 kts 168°
2026-05-01 09:24 42.70736 12.16715 23551 ft 396 kts 168°
2026-05-01 09:24 42.68038 12.17409 23103 ft 393 kts 168°
2026-05-01 09:24 42.62689 12.18754 22221 ft 388 kts 168°
2026-05-01 09:25 42.57403 12.20065 21375 ft 384 kts 168°
2026-05-01 09:25 42.52170 12.21334 20565 ft 380 kts 168°
2026-05-01 09:26 42.49572 12.21963 20180 ft 378 kts 168°
2026-05-01 09:26 42.44419 12.23220 19437 ft 374 kts 168°
2026-05-01 09:26 42.41860 12.23847 19088 ft 373 kts 168°
2026-05-01 09:27 42.36810 12.25083 18390 ft 370 kts 168°
2026-05-01 09:27 42.34281 12.25701 18020 ft 367 kts 168°
2026-05-01 09:27 42.31774 12.26312 17661 ft 365 kts 168°
2026-05-01 09:28 42.29283 12.26916 17309 ft 362 kts 168°
2026-05-01 09:28 42.26809 12.27512 16971 ft 360 kts 168°
2026-05-01 09:28 42.24352 12.28104 16632 ft 358 kts 168°
2026-05-01 09:28 42.21910 12.28693 16312 ft 355 kts 168°
2026-05-01 09:29 42.17073 12.29864 15740 ft 351 kts 168°
2026-05-01 09:29 42.14693 12.30525 15439 ft 348 kts 165°
2026-05-01 09:30 42.10039 12.32146 14779 ft 343 kts 162°
2026-05-01 09:30 42.07848 12.32969 14495 ft 341 kts 162°
2026-05-01 09:30 42.03302 12.34713 13865 ft 337 kts 162°
2026-05-01 09:31 42.01053 12.35577 13541 ft 335 kts 162°
2026-05-01 09:31 41.98823 12.36428 13203 ft 333 kts 162°
2026-05-01 09:31 41.94387 12.38113 12681 ft 329 kts 162°
2026-05-01 09:32 41.92181 12.38947 12422 ft 328 kts 162°
2026-05-01 09:32 41.87830 12.40584 11912 ft 325 kts 162°
2026-05-01 09:32 41.85660 12.41399 11660 ft 323 kts 162°
2026-05-01 09:33 41.83472 12.42218 11406 ft 321 kts 162°
2026-05-01 09:33 41.81325 12.43024 11180 ft 320 kts 162°
2026-05-01 09:33 41.77070 12.44624 10667 ft 316 kts 162°
2026-05-01 09:34 41.74961 12.45420 10422 ft 314 kts 162°
2026-05-01 09:34 41.72887 12.46203 10191 ft 312 kts 162°
2026-05-01 09:34 41.68751 12.47755 9915 ft 308 kts 162°
2026-05-01 09:35 41.66688 12.48526 9763 ft 307 kts 163°
2026-05-01 09:35 41.62595 12.50047 9363 ft 303 kts 163°
2026-05-01 09:35 41.60566 12.50800 8943 ft 302 kts 163°
2026-05-01 09:36 41.58539 12.51554 8544 ft 302 kts 163°
2026-05-01 09:36 41.56525 12.52304 8177 ft 301 kts 163°
2026-05-01 09:36 41.54522 12.53052 7901 ft 296 kts 163°
2026-05-01 09:36 41.52546 12.53791 7513 ft 294 kts 163°
2026-05-01 09:37 41.50581 12.54523 7156 ft 292 kts 163°
2026-05-01 09:37 41.46750 12.55946 6746 ft 275 kts 165°
2026-05-01 09:37 41.44904 12.56053 6623 ft 263 kts 194°
2026-05-01 09:38 41.42424 12.53138 6324 ft 238 kts 253°
2026-05-01 09:38 41.41937 12.51060 6076 ft 235 kts 255°
2026-05-01 09:38 41.41453 12.48954 5697 ft 239 kts 255°
2026-05-01 09:39 41.41577 12.44856 5486 ft 217 kts 307°
2026-05-01 09:39 41.42689 12.43578 5293 ft 211 kts 337°
2026-05-01 09:39 41.44071 12.42973 5098 ft 207 kts 342°
2026-05-01 09:40 41.45440 12.42416 4911 ft 204 kts 342°
2026-05-01 09:40 41.48043 12.41353 4554 ft 197 kts 342°
2026-05-01 09:40 41.49341 12.40821 4401 ft 194 kts 342°
2026-05-01 09:41 41.50632 12.40291 4289 ft 194 kts 342°
2026-05-01 09:41 41.53173 12.39245 4061 ft 183 kts 343°
2026-05-01 09:41 41.54339 12.38765 3931 ft 173 kts 343°
2026-05-01 09:42 41.55459 12.38301 3820 ft 164 kts 342°
2026-05-01 09:42 41.56519 12.37861 3714 ft 155 kts 343°
2026-05-01 09:42 41.58505 12.37034 3516 ft 147 kts 343°
2026-05-01 09:43 41.60713 12.36117 3338 ft 178 kts 343°
2026-05-01 09:43 41.61907 12.35619 3211 ft 180 kts 344°
2026-05-01 09:43 41.63104 12.35120 3083 ft 180 kts 343°
2026-05-01 09:44 41.65493 12.34124 2851 ft 180 kts 344°
2026-05-01 09:44 41.66691 12.33625 2673 ft 179 kts 344°
2026-05-01 09:44 41.67853 12.33139 2481 ft 169 kts 344°
2026-05-01 09:45 41.68939 12.32686 2356 ft 159 kts 345°
2026-05-01 09:45 41.70686 12.31959 2156 ft 154 kts 344°
2026-05-01 09:45 41.71686 12.31541 2037 ft 151 kts 346°
2026-05-01 09:46 41.72693 12.31122 1777 ft 147 kts 345°
2026-05-01 09:46 41.73650 12.30722 1608 ft 142 kts 345°
2026-05-01 09:46 41.74600 12.30328 1425 ft 143 kts 345°
2026-05-01 09:46 41.75534 12.29937 1230 ft 140 kts 345°
2026-05-01 09:47 41.76453 12.29554 1043 ft 137 kts 345°
2026-05-01 09:47 41.77354 12.29154 880 ft 136 kts 343°
2026-05-01 09:47 41.78241 12.28692 691 ft 136 kts 341°
2026-05-01 09:47 41.79155 12.28359 550 ft 137 kts 347°
2026-05-01 09:48 41.80062 12.28017 379 ft 134 kts 344°
2026-05-01 09:48 41.80946 12.27648 139 ft 134 kts 345°
2026-05-01 09:48 41.81835 12.27283 42 ft 132 kts 346°
2026-05-01 09:48 41.82694 12.26921 31 ft 121 kts 349°
2026-05-01 09:49 41.83400 12.26654 14 ft 83 kts 343°
2026-05-01 09:49 41.83799 12.26483 18 ft 45 kts 345°
2026-05-01 09:49 41.84076 12.26378 16 ft 39 kts 344°
2026-05-01 09:49 41.84313 12.26278 18 ft 32 kts 343°
2026-05-01 09:50 41.84446 12.26146 20 ft 23 kts 304°
2026-05-01 09:50 41.84475 12.25953 19 ft 21 kts 228°
2026-05-01 09:50 41.84350 12.25932 19 ft 18 kts 161°
2026-05-01 09:50 41.84233 12.25980 19 ft 18 kts 163°
2026-05-01 09:51 41.84103 12.26034 18 ft 21 kts 162°
2026-05-01 09:51 41.83965 12.26091 17 ft 21 kts 163°
2026-05-01 09:51 41.83825 12.26153 18 ft 21 kts 162°
2026-05-01 09:51 41.83685 12.26210 17 ft 21 kts 163°
2026-05-01 09:52 41.83544 12.26269 16 ft 21 kts 163°
2026-05-01 09:52 41.83400 12.26326 15 ft 22 kts 163°
2026-05-01 09:52 41.83260 12.26387 13 ft 21 kts 161°
2026-05-01 09:52 41.83117 12.26448 12 ft 21 kts 163°
2026-05-01 09:53 41.82978 12.26506 13 ft 21 kts 162°
2026-05-01 09:53 41.82838 12.26568 12 ft 21 kts 162°
2026-05-01 09:53 41.82697 12.26625 11 ft 21 kts 163°
2026-05-01 09:53 41.82556 12.26682 12 ft 21 kts 162°
2026-05-01 09:54 41.82416 12.26743 11 ft 21 kts 161°
2026-05-01 09:54 41.82277 12.26802 12 ft 21 kts 163°
2026-05-01 09:54 41.82137 12.26859 11 ft 21 kts 162°
2026-05-01 09:54 41.81997 12.26919 13 ft 22 kts 162°
2026-05-01 09:55 41.81857 12.26978 11 ft 21 kts 163°
2026-05-01 09:55 41.81717 12.27037 13 ft 21 kts 162°
2026-05-01 09:55 41.81576 12.27094 12 ft 21 kts 163°
2026-05-01 09:55 41.81437 12.27152 12 ft 20 kts 162°
2026-05-01 09:56 41.81298 12.27211 13 ft 21 kts 162°
2026-05-01 09:56 41.81157 12.27270 12 ft 22 kts 163°
2026-05-01 09:56 41.81030 12.27246 12 ft 19 kts 226°
2026-05-01 09:56 41.80921 12.27226 12 ft 16 kts 175°
2026-05-01 09:57 41.80813 12.27195 12 ft 16 kts 209°
2026-05-01 09:57 41.80757 12.27076 13 ft 16 kts 249°
2026-05-01 09:57 41.80718 12.26936 16 ft 16 kts 249°
2026-05-01 09:57 41.80679 12.26795 14 ft 16 kts 250°
2026-05-01 09:58 41.80641 12.26654 16 ft 16 kts 250°
2026-05-01 09:58 41.80603 12.26515 16 ft 16 kts 250°
2026-05-01 09:58 41.80564 12.26376 16 ft 16 kts 250°
2026-05-01 09:58 41.80526 12.26236 17 ft 16 kts 250°
2026-05-01 09:59 41.80487 12.26090 17 ft 16 kts 250°
2026-05-01 09:59 41.80447 12.25949 15 ft 17 kts 250°
2026-05-01 09:59 41.80408 12.25806 16 ft 16 kts 250°
2026-05-01 09:59 41.80368 12.25665 17 ft 16 kts 249°
2026-05-01 10:00 41.80331 12.25530 16 ft 15 kts 250°
2026-05-01 10:00 41.80273 12.25438 16 ft 13 kts 201°
2026-05-01 10:00 41.80188 12.25399 14 ft 13 kts 202°
2026-05-01 10:00 41.80129 12.25317 14 ft 12 kts 241°
2026-05-01 10:01 41.80098 12.25221 14 ft 11 kts 234°
2026-05-01 10:01 41.80042 12.25170 14 ft 9 kts 204°
2026-05-01 10:01 41.79986 12.25137 15 ft 8 kts 204°
2026-05-01 10:01 41.79938 12.25107 14 ft 7 kts 204°
2026-05-01 10:02 41.79901 12.25085 14 ft 5 kts 204°
2026-05-01 10:02 41.79871 12.25066 14 ft 4 kts 201°
2026-05-01 10:02 41.79865 12.25077 14 ft 1 kts 116°
2026-05-01 10:02 41.79862 12.25089 15 ft 1 kts 110°
2026-05-01 10:03 41.79858 12.25102 14 ft 2 kts 110°
2026-05-01 10:03 41.79854 12.25113 14 ft 1 kts 114°
2026-05-01 10:03 41.79850 12.25125 15 ft 2 kts 114°
2026-05-01 10:03 41.79846 12.25137 14 ft 1 kts 114°
2026-05-01 10:04 41.79843 12.25146 14 ft 1 kts 114°
2026-05-01 10:04 41.79838 12.25161 15 ft 0 kts 115°
2026-05-01 10:06 41.79838 12.25160 16 ft 0 kts 115°